Location: Mt. Cuba Astronomical Observatory
(39.8100°N, 75.6300°W)
Time: 18:39:09
(UTC-04:00)

Daily predictions for brighter satellites

Satellite Brightness Start Highest point End
(mag) Time Altitude Azimuth Time Altitude Azimuth Time Altitude Azimuth
ATLAS 2AS CENTAUR R/B 3.9 20:11:54 10° SSE 20:17:45 25° ESE 20:23:53 10° ENE
Cosmos 44 Rocket 3.5 20:13:14 10° NNW 20:17:54 56° NE 20:22:38 10° SE
Cosmos 839 Rocket 4.1 20:12:11 10° SSW 20:18:22 58° ESE 20:24:27 10° NE
SL-16 R/B 2.9 20:14:55 10° SSE 20:19:47 31° ESE 20:24:41 10° NE
Cosmos 1092 Rocket 4.4 20:14:11 10° SSW 20:20:17 70° W 20:26:28 10° N
Cosmos 1441 Rocket 3.2 20:18:09 10° N 20:21:54 83° W 20:25:38 10° S
Intercosmos 25 Rocket 3.8 20:18:52 10° NNW 20:22:05 51° W 20:25:13 10° S
Meteor 1-20 Rocket 4.2 20:17:39 10° S 20:23:13 90° WSW 20:28:45 10° N
NOSS 3-1 (A) 3.8 20:18:39 10° SW 20:24:21 72° NW 20:30:48 10° NNE
Cosmos 1939 Rocket 4.1 20:21:16 10° SE 20:24:31 24° ENE 20:27:43 10° NNE
Okean 1 3.3 20:22:05 10° N 20:26:03 64° E 20:29:59 10° SSE
Cosmos 1452 Rocket 3.5 20:22:30 10° S 20:27:43 65° ESE 20:32:57 10° NNE
Cosmos 405 Rocket 4.1 20:24:40 10° NNW 20:28:18 42° W 20:32:00 10° SSW
Cosmos 1536 4.2 20:27:19 10° SE 20:30:18 20° E 20:33:18 10° NE
Cosmos 1420 Rocket 4.2 20:26:08 10° S 20:31:03 47° ESE 20:36:00 10° NNE
Cosmos 1633 2.5 20:27:47 10° S 20:31:24 81° E 20:35:02 10° N
Lacrosse 5 rocket 1.1 20:28:23 10° NW 20:32:03 70° NE 20:35:49 10° SE
Cosmos 407 Rocket 3.9 20:27:36 10° NNW 20:32:56 70° WSW 20:38:12 10° S
S3M 4.3 20:29:01 10° N 20:35:05 49° ENE 20:41:11 10° SSE
YAOGAN 6 4.0 20:34:18 11° ESE 20:36:52 21° ENE 20:39:35 10° NNE
Cosmos 1553 Rocket 4.1 20:31:33 10° N 20:37:36 56° E 20:43:32 10° SSE
Cosmos 921 Rocket 3.8 20:35:30 10° SSW 20:39:36 55° WNW 20:43:43 10° N
MINOTAUR R/B 4.4 20:38:16 10° NNW 20:40:59 54° ENE 20:43:20 13° SE
Okean 1 Rocket 4.4 20:38:19 10° SE 20:41:24 20° E 20:44:33 10° NE
Cosmos 2360 Rocket 3.5 20:39:39 10° SE 20:43:24 19° E 20:47:10 10° ENE
Helios 1B rocket 3.6 20:40:38 10° NE 20:43:53 22° E 20:47:00 10° SSE
Cosmos 1980 Rocket 3.0 20:38:39 10° SW 20:44:08 55° WNW 20:49:39 10° NNE
Resurs 01 Rocket 1.8 20:40:30 10° S 20:44:56 80° WSW 20:49:26 10° NNW
Cosmos 1300 Rocket 4.2 20:42:23 10° SSE 20:46:13 33° E 20:50:05 10° NNE
Cosmos 676 Rocket 4.3 20:47:56 10° NNW 20:53:14 70° WSW 20:58:31 10° S
Tiangong 1 1.6 20:50:47 10° WNW 20:53:28 44° N 20:55:23 16° ENE
Cosmos 1023 Rocket 4.5 20:49:18 10° NNW 20:54:34 85° ENE 20:59:51 10° SSE
SeaSat 1 2.4 20:49:54 10° NNE 20:54:52 78° ESE 20:59:47 10° SSW
CZ-2D R/B 4.4 20:52:51 10° S 20:56:33 45° W 21:00:17 10° NNW
Meteor 1-13 Rocket 4.3 20:50:55 10° N 20:56:54 72° E 21:02:49 10° SSE
Cosmos 2151 Rocket 3.5 20:53:22 10° S 20:57:44 84° E 21:02:10 10° N
Meteor 2-4 Rocket 3.9 20:53:25 10° N 20:58:50 52° ENE 21:03:48 13° SSE
Cosmos 44 3.5 20:56:36 10° NW 21:01:00 62° WSW 21:05:15 12° SSE
Lacrosse 5 2.3 20:56:35 10° S 21:01:13 37° SE 21:05:52 10° ENE
NOSS 2-3 (C) 3.8 20:57:22 10° SSW 21:01:53 57° ESE 21:07:04 10° NE
DELTA 2 R/B (1) 4.0 20:58:48 10° W 21:04:14 52° SSW 21:07:58 20° SE
Spot 2 Rocket 4.0 20:59:48 10° S 21:04:50 61° WSW 21:09:54 10° NNW
Cosmos 1140 Rocket 3.6 21:00:11 10° NNW 21:05:26 78° WSW 21:10:40 10° SSE
EXPRESS MD2 3.8 21:04:03 10° W 21:06:34 46° NNW 21:10:49 10° NE
Cosmos 614 Rocket 4.0 21:06:05 10° NNW 21:11:12 81° WSW 21:15:50 13° SSE
Atlas Centaur 2 3.5 21:03:43 10° WSW 21:11:13 40° S 21:15:23 21° SE
CZ-4B DEB 3.2 21:16:27 34° ENE 21:16:32 34° ENE 21:19:11 10° N
Okean 2 4.4 21:16:18 10° NNE 21:19:48 27° ENE 21:20:18 26° E
Cosmos 1536 Rocket 3.7 21:15:47 10° NNW 21:20:07 73° W 21:24:03 12° S
Helios 1A 2.9 21:21:40 24° SSE 21:24:11 79° ENE 21:28:27 10° N
Meteor 1-29 3.0 21:23:18 10° NNE 21:26:39 52° E 21:27:14 45° SE
SAR-Lupe-4 4.0 21:27:40 39° E 21:28:10 42° ENE 21:31:36 10° N
ERS-1 Rocket 3.2 21:26:23 29° SE 21:28:35 50° ENE 21:33:26 10° N
Cosmos 1741 Rocket 4.0 21:25:01 10° NNW 21:30:17 88° WSW 21:33:28 25° SSE
H-2A R/B 3.2 21:29:52 23° E 21:30:53 25° ENE 21:34:54 10° NNE
BREEZE M DEB (TANK) 3.1 21:24:30 10° SW 21:33:42 50° SSE 21:34:56 36° E
Envisat 4.1 21:29:15 10° SSW 21:34:01 41° W 21:38:50 10° NNW
Meteor 1-11 Rocket 4.3 21:28:38 10° SSW 21:34:25 61° WNW 21:40:07 10° N
ATLAS 3B R/B 3.3 21:28:47 10° NNW 21:35:06 40° NE 21:38:06 26° E
GPS 2-05 Rocket1 3.6 21:32:52 10° WSW 21:35:41 35° SSW 21:35:41 35° SSW
NOSS 2-3 (D) 4.2 21:37:02 10° SW 21:41:39 68° NW 21:47:01 10° NNE
SAR-Lupe-1 4.1 21:45:10 59° ENE 21:45:10 59° ENE 21:48:41 10° N
SL-08 RB Rocket 4.3 21:45:27 37° E 21:45:54 38° ENE 21:50:07 10° N
ARGOS 3.3 21:45:47 40° ESE 21:47:23 54° ENE 21:52:36 10° N
Terra 3.7 21:50:12 16° ENE 21:50:12 16° ENE 21:52:56 10° NNE
Cosmos 2278 Rocket 4.4 21:50:09 10° NNE 21:51:47 11° NE 21:53:25 10° ENE
Cosmos 2322 Rocket 3.3 21:47:31 10° SW 21:52:57 44° WNW 21:58:24 10° N
Cosmos 2263 Rocket 2.3 21:47:39 10° NNW 21:53:20 72° WSW 21:55:53 34° S
Cosmos 2237 4.4 21:52:58 44° SE 21:53:44 46° ESE 21:59:10 10° NE
Meteor 1-23 Rocket 4.5 21:54:07 10° NNW 21:59:37 65° W 22:02:41 27° S
Cosmos 1844 Rocket 3.7 21:56:14 10° N 22:01:12 30° ENE 22:02:00 29° ENE
Cosmos 1244 Rocket 4.4 21:59:54 37° SSE 22:02:25 70° E 22:08:31 10° NNE
Cosmos 1110 Rocket 3.9 21:58:42 15° SSW 22:02:59 85° WNW 22:08:12 10° NNE
SL-16 R/B 3.7 21:58:33 10° SW 22:03:45 37° WNW 22:08:59 10° N
ATLAS 2AS CENTAUR R/B 3.2 22:00:19 10° SW 22:07:59 74° NW 22:16:09 10° NNE
Cosmos 1515 3.9 22:04:37 10° N 22:07:55 64° N 22:07:55 64° N
Lacrosse 5 rocket 3.8 22:09:33 10° WSW 22:10:47 11° WSW 22:11:31 11° SW
Cosmos 2322 3.6 22:08:47 21° SSW 22:12:44 88° ESE 22:18:27 10° NNE
Cosmos 2219 Rocket 3.9 22:16:11 18° ENE 22:16:11 18° ENE 22:18:01 10° NE
Cosmos 1331 Rocket 4.1 22:14:52 24° SSW 22:18:03 71° WNW 22:23:17 10° NNE
Helios 1B rocket 4.4 22:15:39 10° N 22:19:09 27° WNW 22:22:38 10° SW
Cosmos 1238 Rocket 4.0 22:13:12 10° N 22:19:59 76° E 22:21:22 57° SSE
MetOp-B 4.4 22:19:54 45° SSW 22:21:22 63° WSW 22:26:41 10° NNW
COSMOS 2428 3.0 22:22:19 51° ENE 22:22:19 51° ENE 22:27:05 10° NNE
Cosmos 1500 4.1 22:24:18 48° NNW 22:24:18 48° NNW 22:27:15 10° N
SL-08 R/B 4.4 22:22:32 59° SE 22:23:23 66° E 22:29:39 10° NNE
Cosmos 1607 4.4 22:18:33 10° NW 22:24:52 57° WSW 22:26:39 43° SSW
Okean 1-7 Rocket 4.4 22:21:36 10° NNW 22:25:54 46° W 22:26:34 42° WSW
Cosmos 2360 Rocket 2.7 22:21:19 10° SW 22:26:51 58° WNW 22:32:25 10° NNE
Aureole 3 Rocket 4.2 22:18:31 10° N 22:27:10 82° E 22:28:50 56° SSE
YAOGAN 11 4.3 22:28:57 67° NNW 22:28:57 67° NNW 22:32:44 10° NNW
Tiangong 1 4.2 22:26:13 10° WNW 22:26:22 11° WNW 22:26:22 11° WNW
SPOT 1/Viking Rocket 3.4 22:31:56 86° E 22:31:58 86° ENE 22:37:13 10° NNW
Cosmos 1025 Rocket 4.3 22:28:33 10° NNW 22:32:25 34° W 22:32:55 33° WSW
Cosmos 1844 4.4 22:27:49 10° N 22:33:04 41° ENE 22:33:04 41° ENE
Cosmos 2333 Rocket 3.9 22:38:20 20° NE 22:38:20 20° NE 22:40:14 10° NE
SPOT 5 3.0 22:35:22 66° WSW 22:35:24 66° WSW 22:40:07 10° NNW
Cosmos 2333 4.3 22:44:53 63° NE 22:44:53 63° NE 22:49:36 10° NNE
Lacrosse 5 3.2 22:39:25 10° WSW 22:44:09 39° NW 22:48:55 10° NNE
BREEZE-M DEB 4.3 22:41:53 10° NW 22:46:59 36° N 22:46:59 36° N
Nimbus 7 Rocket 4.3 22:42:16 10° NNE 22:48:09 83° WNW 22:48:39 74° SW
H-2A R/B 4.0 22:50:04 21° NNE 22:50:04 21° NNE 22:51:58 10° N
Cosmos 1745 Rocket 3.8 22:55:56 84° WSW 22:56:00 85° W 23:02:11 10° N
Cosmos 2237 Rocket 4.2 23:00:29 17° NE 23:00:29 17° NE 23:01:53 10° NE
Atlas Centaur 2 4.1 22:54:01 10° WSW 22:58:00 23° SW 22:58:00 23° SW
NOSS 3-2 (A) 4.0 22:57:55 10° NNW 23:05:28 72° NE 23:06:18 67° E
USA 238 DEB 3.8 22:59:08 10° NW 23:06:10 67° WSW 23:06:30 66° SW
USA 238 3.8 22:59:13 10° NW 23:06:16 68° WSW 23:06:37 67° SW
H-2A R/B 3.1 23:10:30 37° W 23:10:30 37° W 23:14:45 10° NNW
ATLAS 3B R/B 3.4 23:19:37 10° NW 23:25:20 39° WSW 23:25:20 39° WSW
Terra 3.3 23:29:05 34° NW 23:29:05 34° NW 23:31:57 10° NNW
Cosmos 2278 Rocket 3.1 23:31:18 10° NNW 23:35:15 44° N 23:35:15 44° N
NOSS 3-2 (C) 3.9 23:35:37 10° NW 23:42:56 84° NNW 23:42:56 84° NNW
Cosmos 1844 Rocket 4.0 23:39:55 10° NW 23:43:39 33° WNW 23:43:39 33° WNW
